Humboldt, Iowa, United States (50548)
Lat: 42.72N, Lon: 94.22W
Wx Zone: IAZ024
Local Info
Past Weather Observations for Saturday, July 23, 2016

NOTE: This archive is for the closest National Weather Service station to Humboldt. Information may differ from the station used for current weather conditions.

Click here for Long-term Archive

Time Weather Temperature Dewpoint Humidity Pressure Winds Precip Visibility
23:55
Clear
81°F / 27°C 75°F / 24°C 84% 29.83 in
(1010 mb)
SSE 11.5 mph
(SSE 19 kph)
- 10SM
23:35
Clear
81°F / 27°C 75°F / 24°C 84% 29.83 in
(1010 mb)
SW 11.5 mph
(SW 19 kph)
- 10SM
23:15
Clear
81°F / 27°C 75°F / 24°C 84% 29.83 in
(1010 mb)
SSE 10.4 mph
(SSE 17 kph)
- 10SM
22:55
Clear
81°F / 27°C 75°F / 24°C 84% 29.83 in
(1010 mb)
SSE 8.1 mph
(SSE 13 kph)
- 10SM
22:35
Clear
81°F / 27°C 75°F / 24°C 84% 29.83 in
(1010 mb)
SSE 6.9 mph
(SSE 11 kph)
- 10SM
22:15
Clear
81°F / 27°C 75°F / 24°C 84% 29.8 in
(1009 mb)
S 8.1 mph
(S 13 kph)
- 10SM
21:55
Clear
81°F / 27°C 75°F / 24°C 84% 29.8 in
(1009 mb)
S 10.4 mph
(S 17 kph)
- 10SM
21:35
Clear
82°F / 28°C 75°F / 24°C 79% 29.8 in
(1009 mb)
S 11.5 mph
(S 19 kph)
- 10SM
21:15
Clear
82°F / 28°C 75°F / 24°C 79% 29.8 in
(1009 mb)
S 11.5 mph
(S 19 kph)
- 10SM
20:55
Clear
82°F / 28°C 75°F / 24°C 79% 29.8 in
(1009 mb)
S 11.5 mph
(S 19 kph)
- 10SM
20:35
Clear
82°F / 28°C 77°F / 25°C 84% 29.8 in
(1009 mb)
S 10.4 mph
(S 17 kph)
- 10SM
20:15
Clear
82°F / 28°C 77°F / 25°C 84% 29.8 in
(1009 mb)
S 10.4 mph
(S 17 kph)
- 10SM
19:55
Clear
82°F / 28°C 77°F / 25°C 84% 29.8 in
(1009 mb)
S 10.4 mph
(S 17 kph)
- 10SM
19:35
Clear
84°F / 29°C 79°F / 26°C 84% 29.8 in
(1009 mb)
S 9.2 mph
(S 15 kph)
- 10SM
19:15
Clear
84°F / 29°C 79°F / 26°C 84% 29.8 in
(1009 mb)
S 5.8 mph
(S 9 kph)
- 10SM
18:55
Clear
84°F / 29°C 79°F / 26°C 84% 29.8 in
(1009 mb)
S 5.8 mph
(S 9 kph)
- 10SM
18:35
Clear
84°F / 29°C 79°F / 26°C 84% 29.8 in
(1009 mb)
S 5.8 mph
(S 9 kph)
- 10SM
18:15
Clear
84°F / 29°C 79°F / 26°C 84% 29.8 in
(1009 mb)
S 5.8 mph
(S 9 kph)
- 10SM
17:55
Clear
86°F / 30°C 79°F / 26°C 79% 29.8 in
(1009 mb)
S 6.9 mph
(S 11 kph)
- 10SM
17:35
Clear
86°F / 30°C 79°F / 26°C 79% 29.8 in
(1009 mb)
S 6.9 mph
(S 11 kph)
- 10SM
17:15
Clear
86°F / 30°C 79°F / 26°C 79% 29.8 in
(1009 mb)
S 6.9 mph
(S 11 kph)
- 10SM
16:55
Clear
86°F / 30°C 77°F / 25°C 75% 29.83 in
(1010 mb)
S 10.4 mph
(S 17 kph)
- 10SM
16:35
Clear
88°F / 31°C 77°F / 25°C 70% 29.83 in
(1010 mb)
S 9.2 mph
(S 15 kph)
- 10SM
16:15
Clear
88°F / 31°C 79°F / 26°C 75% 29.83 in
(1010 mb)
S 11.5 mph
(S 19 kph)
- 10SM
15:55
Clear
86°F / 30°C 77°F / 25°C 75% 29.83 in
(1010 mb)
S 10.4 mph
(S 17 kph)
- 10SM
15:35
Clear
88°F / 31°C 77°F / 25°C 70% 29.83 in
(1010 mb)
S 10.4 mph
(S 17 kph)
- 10SM
15:15
Clear
88°F / 31°C 79°F / 26°C 75% 29.83 in
(1010 mb)
SSE 10.4 mph
(SSE 17 kph)
- 10SM
14:55
Clear
88°F / 31°C 79°F / 26°C 75% 29.83 in
(1010 mb)
S 11.5 mph
(S 19 kph)
- 10SM
14:35
Clear
86°F / 30°C 79°F / 26°C 79% 29.83 in
(1010 mb)
SSE 10.4 mph
(SSE 17 kph)
- 10SM
14:15
Partly Cloudy
84°F / 29°C 79°F / 26°C 84% 29.83 in
(1010 mb)
SE 9.2 mph
(SE 15 kph)
- 10SM
13:55
Mostly Cloudy
82°F / 28°C 79°F / 26°C 89% 29.83 in
(1010 mb)
SE 11.5 mph
(SE 19 kph)
- 10SM
13:35
Mostly Cloudy
81°F / 27°C 79°F / 26°C 94% 29.86 in
(1011 mb)
SE 8.1 mph
(SE 13 kph)
- 10SM
13:15
Mostly Cloudy
81°F / 27°C 79°F / 26°C 94% 29.86 in
(1011 mb)
SE 9.2 mph
(SE 15 kph)
- 10SM
12:55
Mostly Cloudy
81°F / 27°C 79°F / 26°C 94% 29.89 in
(1012 mb)
SE 9.2 mph
(SE 15 kph)
- 10SM
12:35
Partly Cloudy
81°F / 27°C 79°F / 26°C 94% 29.86 in
(1011 mb)
SE 9.2 mph
(SE 15 kph)
- 10SM
12:15
Partly Cloudy
81°F / 27°C 77°F / 25°C 89% 29.89 in
(1012 mb)
SE 10.4 mph
(SE 17 kph)
- 10SM
11:55
Mostly Cloudy
81°F / 27°C 77°F / 25°C 89% 29.86 in
(1011 mb)
ESE 13.8 mph
(ESE 22 kph)
- 10SM
11:35
Mostly Cloudy
81°F / 27°C 79°F / 26°C 94% 29.89 in
(1012 mb)
SE 6.9 mph
(SE 11 kph)
- 10SM
11:15
Partly Cloudy
81°F / 27°C 79°F / 26°C 94% 29.89 in
(1012 mb)
SE 11.5 mph
(SE 19 kph)
- 10SM
10:55
Mostly Cloudy
81°F / 27°C 79°F / 26°C 94% 29.89 in
(1012 mb)
ESE 9.2 mph
(ESE 15 kph)
0.01 in
(0.25 mm)
10SM
10:35
Overcast
81°F / 27°C 77°F / 25°C 89% 29.89 in
(1012 mb)
E 6.9 mph
(E 11 kph)
0.01 in
(0.25 mm)
10SM
10:15
Mostly Cloudy
81°F / 27°C 79°F / 26°C 94% 29.92 in
(1013 mb)
SE 4.6 mph
(SE 7 kph)
- 10SM
09:55
Overcast
81°F / 27°C 79°F / 26°C 94% 29.92 in
(1013 mb)
SE 3.5 mph
(SE 6 kph)
- 10SM
09:35
Overcast
81°F / 27°C 79°F / 26°C 94% 29.92 in
(1013 mb)
SSE 3.5 mph
(SSE 6 kph)
- 10SM
09:15
Mostly Cloudy
81°F / 27°C 77°F / 25°C 89% 29.92 in
(1013 mb)
SW 6.9 mph
(SW 11 kph)
- 10SM
08:55
Clear
79°F / 26°C 77°F / 25°C 94% 29.89 in
(1012 mb)
SE 8.1 mph
(SE 13 kph)
- 10SM
08:35
Clear
77°F / 25°C 75°F / 24°C 94% 29.89 in
(1012 mb)
SSE 6.9 mph
(SSE 11 kph)
- 10SM
08:15
Clear
75°F / 24°C 73°F / 23°C 94% 29.89 in
(1012 mb)
SE 8.1 mph
(SE 13 kph)
- 10SM
07:55
Partly Cloudy
75°F / 24°C 72°F / 22°C 89% 29.89 in
(1012 mb)
SE 5.8 mph
(SE 9 kph)
0.02 in
(0.51 mm)
10SM
07:35
Partly Cloudy
Thunder Storms
75°F / 24°C 73°F / 23°C 94% 29.92 in
(1013 mb)
E 6.9 mph
(E 11 kph)
0.02 in
(0.51 mm)
8SM
07:15
Mostly Cloudy
Thunder Storms
75°F / 24°C 75°F / 24°C 100% 29.92 in
(1013 mb)
E 4.6 mph
(E 7 kph)
0.02 in
(0.51 mm)
10SM
06:55
Overcast
Thunder Storms
77°F / 25°C 75°F / 24°C 94% 29.95 in
(1014 mb)
S 5.8 mph
(S 9 kph)
0.13 in
(3.30 mm)
7SM
06:35
Overcast
77°F / 25°C 75°F / 24°C 94% 29.95 in
(1014 mb)
Calm 0.10 in
(2.54 mm)
5SM
06:15
Overcast
77°F / 25°C 75°F / 24°C 94% 29.95 in
(1014 mb)
SE 3.5 mph
(SE 6 kph)
0.05 in
(1.27 mm)
8SM
05:55
Overcast
77°F / 25°C 75°F / 24°C 94% 29.92 in
(1013 mb)
SE 4.6 mph
(SE 7 kph)
- 9SM
05:35
Mostly Cloudy
75°F / 24°C 73°F / 23°C 94% 29.89 in
(1012 mb)
E 10.4 mph
(E 17 kph)
- 10SM
05:15
Partly Cloudy
75°F / 24°C 73°F / 23°C 94% 29.89 in
(1012 mb)
E 8.1 mph
(E 13 kph)
- 10SM
04:55
Partly Cloudy
77°F / 25°C 75°F / 24°C 94% 29.92 in
(1013 mb)
ESE 6.9 mph
(ESE 11 kph)
- 10SM
04:35
Mostly Cloudy
77°F / 25°C 75°F / 24°C 94% 29.92 in
(1013 mb)
E 6.9 mph
(E 11 kph)
- 10SM
04:15
Partly Cloudy
77°F / 25°C 75°F / 24°C 94% 29.92 in
(1013 mb)
E 5.8 mph
(E 9 kph)
- 10SM
03:55
Clear
79°F / 26°C 75°F / 24°C 89% 29.92 in
(1013 mb)
SE 3.5 mph
(SE 6 kph)
- 10SM
03:35
Mostly Cloudy
79°F / 26°C 77°F / 25°C 94% 29.92 in
(1013 mb)
SE 3.5 mph
(SE 6 kph)
- 10SM
03:15
Overcast
79°F / 26°C 77°F / 25°C 94% 29.95 in
(1014 mb)
SSE 4.6 mph
(SSE 7 kph)
- 10SM
02:55
Mostly Cloudy
79°F / 26°C 77°F / 25°C 94% 29.95 in
(1014 mb)
SE 4.6 mph
(SE 7 kph)
- 10SM
02:35
Mostly Cloudy
79°F / 26°C 77°F / 25°C 94% 29.95 in
(1014 mb)
SSE 8.1 mph
(SSE 13 kph)
- 10SM
02:15
Partly Cloudy
79°F / 26°C 77°F / 25°C 94% 29.95 in
(1014 mb)
SE 5.8 mph
(SE 9 kph)
- 10SM
01:55
Clear
79°F / 26°C 77°F / 25°C 94% 29.95 in
(1014 mb)
SE 8.1 mph
(SE 13 kph)
- 10SM
01:35
Clear
81°F / 27°C 77°F / 25°C 89% 29.95 in
(1014 mb)
SE 6.9 mph
(SE 11 kph)
- 10SM
01:15
Partly Cloudy
81°F / 27°C 77°F / 25°C 89% 29.95 in
(1014 mb)
SSE 8.1 mph
(SSE 13 kph)
- 10SM
00:55
Mostly Cloudy
81°F / 27°C 77°F / 25°C 89% 29.98 in
(1015 mb)
SE 6.9 mph
(SE 11 kph)
- 10SM
00:35
Mostly Cloudy
81°F / 27°C 79°F / 26°C 94% 29.98 in
(1015 mb)
SSE 6.9 mph
(SSE 11 kph)
- 10SM
00:15
Mostly Cloudy
81°F / 27°C 79°F / 26°C 94% 29.98 in
(1015 mb)
SSE 5.8 mph
(SSE 9 kph)
- 10SM
Time Weather Temperature Dewpoint Humidity Pressure Winds Precip Visibility


Weather for websites

WeatherForYou.com, LLC is not responsible for any damages or problems caused by this service. Current weather conditions are obtained from the closest station including government and personal stations which may have varying degrees of accuracy. Weather forecasts are derived from the NOAA NDFD. Like all things, this site belongs to Jesus Christ... He just trusts us to maintain it. If you have any questions or comments email webmaster@weatherforyou.com

Copyright © 2016, WeatherForYou.com LLC. All rights reserved.